Tracking 28794 objects as of 19-Apr-2024
HD Live streaming from Space Station
objects crossing your sky now

TIROS 9

Track TIROS 9 now!
10-day predictions
TIROS 9 is classified as:


NORAD ID: 978
Int'l Code: 1965-004A
Perigee: 711.9 km
Apogee: 2,566.3 km
Inclination: 96.4 °
Period: 118.9 minutes
Semi major axis: 8010 km
RCS: 0.8367 m2 (medium)
Launch date: January 22, 1965
Source: United States (US)
Launch site: AIR FORCE EASTERN TEST RANGE (AFETR)
Your satellite tracking list
Your tracking list is empty




NASA's NSSDC Master Catalog

Two Line Element Set (TLE):
1 00978U 65004A   24110.43795658  .00000250  00000-0  34366-3 0  9996
2 00978  96.3972 272.8606 1157490 300.3248  48.8257 12.11003209616130
Source of the keplerian elements: AFSPC